Home   Weather   Rotherham   Past weeks

Flag for United Kingdom Past Weather in Rotherham, England, United Kingdom — Yesterday and Last 2 Weeks

Now
37 °F

Chilly.


Feels Like: 30 °F
Forecast: 35 / 52 °F
Wind: 9 mph from North

Location: Nottingham Weather Centre

Current Time: Apr 26, 2017 at 7:32:43 am

Latest Report: Apr 26, 2017 at 6:00 am


Visibility: 16 mi

Pressure: 30.07 "Hg

Humidity: 84%

Dew Point: 32 °F

Location of RotherhamLocation

Past Weather in Rotherham — Graph

°F

Rotherham Temperature Yesterday

Maximum temperature yesterday: 48 °F (at 3:00 pm)
Minimum temperature yesterday: 31 °F (at 5:00 am)
Average temperature yesterday: 39 °F

High & Low Weather Summary for the Past Weeks

 TemperatureHumidityPressure
High58 °F (Apr 23, 5:00 pm)96% (Apr 14, 10:00 am)30.65 "Hg (Apr 14, 10:00 am)
Low31 °F (Apr 25, 5:00 am)36% (Apr 24, 8:00 pm)29.90 "Hg (Apr 14, 5:00 pm)
Average47 °F72%30.22 "Hg
* Reported Apr 11 6:00 am — Apr 26 6:00 am, Rotherham, Weather by CustomWeather, © 2017

Note: Actual official high and low records may vary slightly from our data, if they occured in-between our weather recording intervals... More about our weather records

Advertising

Rotherham Weather History for the Previous 24 Hours

Scroll right to see more
 ConditionsComfort  
Time TempWeatherWind HumidityBarometerVisibility
6:00 am
Wed, Apr 26
37 °FChilly.9 mph84%30.07 "Hg16 mi
5:00 am37 °FChilly.9 mph85%30.06 "Hg11 mi
4:00 am37 °FChilly.8 mph86%30.05 "Hg13 mi
3:00 am37 °FChilly.10 mph88%30.05 "Hg19 mi
2:00 am37 °FChilly.9 mph87%30.05 "Hg15 mi
1:00 am38 °FChilly.8 mph85%30.05 "Hg19 mi
12:00 am37 °FChilly.8 mph87%30.04 "Hg22 mi
11:00 pm
Tue, Apr 25
37 °FChilly.10 mph88%30.03 "Hg28 mi
10:00 pm37 °FChilly.3 mph95%30.03 "Hg11 mi
9:00 pm36 °FChilly.2 mph94%30.02 "Hg10 mi
8:00 pm40 °FQuite cool.5 mph81%29.99 "Hg25 mi
7:00 pm40 °FQuite cool.5 mph84%29.98 "Hg28 mi
6:00 pm41 °FQuite cool.5 mph86%29.97 "Hg28 mi
5:00 pm37 °FLight mixture of precip. Cloudy.13 mph86%29.99 "Hg4 mi
4:00 pm44 °FQuite cool.12 mph74%29.95 "Hg19 mi
3:00 pm48 °FCool.12 mph46%29.94 "Hg12 mi
2:00 pm47 °FCool.14 mph51%29.95 "Hg19 mi
1:00 pm46 °FCool.12 mph45%29.96 "Hg28 mi
12:00 pm46 °FCool.10 mph48%29.95 "Hg10 mi
11:00 am45 °FQuite cool.9 mph52%29.95 "Hg16 mi
10:00 am43 °FQuite cool.7 mph50%29.95 "Hg19 mi
9:00 am40 °FChilly.7 mph56%29.95 "Hg15 mi
8:00 am36 °FChilly.6 mph67%29.96 "Hg16 mi
7:00 am32 °FChilly.5 mph81%29.94 "Hg18 mi
Weather by CustomWeather, © 2017

See weather overviewHow to use our weather pages